Location: Byhalia Creek
(34.8270°N, 89.8040°W)
Time: 19:29:11
(UTC+00:00)

SL-08 RB Rocket - Pass Details

Date: 22 April 2026
Orbit: 632 x 665 km, 97.8° (Epoch: 21 May)

Event Time Altitude Azimuth Distance (km) Brightness Sun altitude
Rises 09:37:35 0° 18° (NNE) 2,938 7.8 -19.8°
Reaches altitude 10° 09:39:50 10° 23° (NNE) 2,030 7.0 -19.4°
Maximum altitude 09:44:09 52° 100° (E) 798 4.4 -18.7°
Drops below altitude 10° 09:48:29 10° 177° (S) 2,035 5.9 -17.9°
Enters shadow 09:48:32 10° 177° (S) 2,056 6.0 -17.9°
